Location: Middle Street
(51.7167°N, 0.0333°E)
Time: 23:31:30
(UTC+00:00)

ISS - Pass Details

Date: 20 January 2021
Orbit: 417 x 422 km, 51.6° (Epoch: 01 March)

Event Time Altitude Azimuth Distance (km) Brightness Sun altitude
Rises 17:39:42 0° 190° (S) 2,360 0.5 -10.9°
Reaches altitude 10° 17:43:14 10° 151° (SSE) 1,503 -1.1 -11.4°
Maximum altitude 17:44:04 11° 137° (SE) 1,462 -1.3 -11.5°
Drops below altitude 10° 17:44:54 10° 122° (ESE) 1,506 -1.3 -11.6°
Enters shadow 17:45:05 10° 119° (ESE) 1,527 -1.3 -11.7°
